Weather in Seversk

Russia / Tomsk District     56°36′11″N   84°52′51″E
temp.,
°C
wind,
m/s
gust,
m/s
humid.,
%
clouds,
%
prec.,
mm/h
press.,
hPa
HPBL,
m
9 december, thu
thu901:00−18sw3797100 0.4 1036288
04:00−19sw379898 0.1 1037221
07:00−20sw389899 0.2 1039243
10:00−19sw3109798 0.1 1040330
13:00−17sw41194100 0.1 1040421
16:00−17sw51192100 0.0 1041475
19:00−17sw51293100 0.0 1041439
22:00−17sw51293100 0.0 1042438
10 december, fri
fri1001:00−17sw51493100 0.0 1041443
04:00−18ssw51393100 0.0 1040406
07:00−16ssw51395100 0.6 1040508
10:00−15sw41195100 0.6 1040505
13:00−13sw4993100 1.0 1039510
16:00−12sw389499 0.1 1039434
19:00−12ssw3895100 0.3 1040339
22:00−12ssw41095100 0.1 1039364
11 december, sat
sat1101:00−10ssw51294100 0.6 1038443
04:00−10ssw51388100 0.0 1037459
07:00−10ssw61484100 0.0 1035444
10:00−9ssw61681100 0.0 1033508
13:00−8ssw61779100 0.0 1031587
16:00−8ssw61678100 0.0 1028576
19:00−8ssw51580100 0.0 1026519
22:00−8sw51283100 0.0 1024485
12 december, sun
sun1201:00−9sw41088100 0.0 1022432
04:00−10wsw3894100 0.0 1022337
07:00−13wsw2598100 0.1 1021105
10:00−16wsw23100100 0.1 102254
13:00−15w269679 0.1 1022230
16:00−18w239994 0.0 102347
19:00−24wsw1110094 0.1 102524
22:00−23wsw1110089 0.1 102728
13 december, mon
mon1301:00−24sw1110095 0.1 102825
04:00−22sw24100100 0.1 102981
07:00−20sw2698100 0.2 1029231
10:00−20ssw3698100 0.1 1029270
13:00−18sw3695100 0.4 1028363
16:00−16s2696100 0.5 1027356
19:00−17s269697 0.8 1026249
22:00−17sse1298100 0.2 102565